Morrisville, VT

2:59 PM EST on December 05, 2019 (GMT -0500)
Morrisville Stowe State

Weather History for KMVL - November, 2019

Change the Weather History Date:

Monday, November 11, 2019

  Actual Average Record
Temperature  
Mean Temperature 28 °F 37 °F  
Max Temperature 35 °F 46 °F 69 °F (2002)
Min Temperature 22 °F 28 °F 13 °F (2017)
Degree Days  
Heating Degree Days 36 28  
Month to date heating degree days 326 290  
Since 1 July heating degree days 1145 1221  
Cooling Degree Days 0 0  
Month to date cooling degree days 0 0  
Year to date cooling degree days 254 265  
Moisture  
Dew Point 22 °F    
Average Humidity 84    
Maximum Humidity 92    
Minimum Humidity 72    
Precipitation  
Precipitation T in 0.10 in 0.40 in (1998)
Month to date precipitation 0.96 1.11  
Year to date precipitation 39.99 31.35  
Sea Level Pressure  
Sea Level Pressure 30.12 in    
Wind  
Wind Speed 6 mph ()    
Max Wind Speed 16 mph    
Max Gust Speed 22 mph    
Visibility 5.1 miles    
Events Snow    
T = Trace of Precipitation, MM = Missing Value Source: Averaged Metar Reports

Daily Weather History Graph

Daily Weather History Graph

Search for Another Location

Airport or City:

Astronomy

Nov. 11, 2019 Rise Set
Actual Time 6:41 AM EST 4:27 PM EST
Civil Twilight 6:09 AM EST 4:58 PM EST
Nautical Twilight 5:34 AM EST 5:33 PM EST
Astronomical Twilight 5:00 AM EST 6:07 PM EST
Moon 4:25 PM EST (11/11) 5:24 AM EST (11/11)
Length of Visible Light 10h 48m
Length of Day
9h 46m
Waxing Gibbous, 99% of the Moon is Illuminated
Nov 11
Waxing Gibbous
Nov 12
Full
Nov 19
Last Quarter
Nov 26
New
Dec 4
First Quarter

Hourly Weather History & Observations

Time (EST) Temp. Windchill Dew Point Humidity Pressure Visibility Wind Dir Wind Speed Gust Speed Precip Events Conditions
12:19 AM 33.1 °F 24.4 °F 28.9 °F 85% 30.02 in 6.0 mi North 11.5 mph 21.9 mph 0.00 in Snow Light Snow
12:43 AM 32.0 °F 24.2 °F 28.9 °F 88% 30.03 in 10.0 mi NNE 9.2 mph - 0.00 in   Overcast
12:54 AM 32.0 °F 24.8 °F 28.9 °F 88% 30.05 in 10.0 mi NE 8.1 mph - 0.00 in   Overcast
1:54 AM 32.0 °F 23.6 °F 27.0 °F 82% 30.08 in 9.0 mi North 10.4 mph - 0.00 in Snow Light Snow
2:16 AM 32.0 °F 24.2 °F 26.1 °F 79% 30.07 in 9.0 mi North 9.2 mph 18.4 mph 0.00 in   Overcast
2:54 AM 30.9 °F 24.3 °F 26.1 °F 82% 30.11 in 9.0 mi North 6.9 mph - 0.00 in   Overcast
3:10 AM 30.0 °F 21.7 °F 25.0 °F 82% 30.09 in 9.0 mi North 9.2 mph - 0.00 in Snow Light Snow
3:54 AM 28.9 °F 22.8 °F 25.0 °F 85% 30.12 in 6.0 mi North 5.8 mph - 0.00 in Snow Light Snow
4:54 AM 28.9 °F 22.8 °F 23.0 °F 78% 30.15 in 10.0 mi North 5.8 mph - 0.00 in   Overcast
5:54 AM 28.9 °F 23.9 °F 23.0 °F 78% 30.16 in 9.0 mi North 4.6 mph - 0.00 in Snow Light Snow
6:54 AM 28.0 °F 21.7 °F 23.0 °F 81% 30.19 in 9.0 mi NNE 5.8 mph - 0.00 in Snow Light Snow
7:10 AM 28.0 °F 21.7 °F 23.0 °F 81% 30.16 in 10.0 mi NNE 5.8 mph - 0.00 in   Overcast
7:54 AM 28.0 °F 20.8 °F 23.0 °F 81% 30.22 in 9.0 mi NNE 6.9 mph - 0.00 in Snow Light Snow
8:54 AM 28.0 °F 19.3 °F 23.0 °F 81% 30.23 in 10.0 mi NNE 9.2 mph - 0.00 in   Overcast
9:47 AM 28.0 °F 20.0 °F 21.9 °F 78% 30.22 in 10.0 mi North 8.1 mph - N/A   Overcast
9:54 AM 28.0 °F 20.0 °F 21.9 °F 78% 30.25 in 10.0 mi North 8.1 mph - N/A   Overcast
10:54 AM 28.0 °F 20.8 °F 21.0 °F 75% 30.24 in 10.0 mi East 6.9 mph - N/A   Overcast
11:54 AM 28.9 °F 21.1 °F 21.0 °F 72% 30.22 in 10.0 mi NNE 8.1 mph - 0.00 in Snow Light Snow
12:54 PM 28.9 °F 22.8 °F 21.0 °F 72% 30.22 in 8.0 mi North 5.8 mph - 0.00 in Snow Light Snow
1:01 PM 28.9 °F 21.1 °F 21.9 °F 75% 30.19 in 8.0 mi NNE 8.1 mph - 0.00 in Snow Light Snow
1:54 PM 28.0 °F 20.0 °F 23.0 °F 81% 30.22 in 2.5 mi NNE 8.1 mph - 0.00 in Snow Light Snow
2:04 PM 28.0 °F 20.0 °F 23.0 °F 81% 30.19 in 1.8 mi North 8.1 mph - 0.00 in Snow Light Snow
2:54 PM 27.0 °F 19.5 °F 23.0 °F 85% 30.20 in 1.8 mi North 6.9 mph - 0.00 in Snow Light Snow
3:13 PM 26.1 °F 17.6 °F 21.9 °F 84% 30.16 in 2.5 mi NNE 8.1 mph - 0.00 in Snow Light Snow
3:21 PM 26.1 °F 19.4 °F 21.9 °F 84% 30.16 in 3.0 mi NNE 5.8 mph - 0.00 in Snow Light Snow
3:26 PM 26.1 °F 18.4 °F 21.9 °F 84% 30.16 in 2.5 mi NNE 6.9 mph - 0.00 in Snow Light Snow
3:54 PM 26.1 °F 20.5 °F 21.9 °F 84% 30.20 in 1.0 mi NE 4.6 mph - 0.00 in Snow Light Snow
4:34 PM 25.0 °F 17.1 °F 21.0 °F 85% 30.17 in 1.5 mi ENE 6.9 mph - 0.00 in Snow Light Snow
4:54 PM 25.0 °F 16.3 °F 21.0 °F 85% 30.20 in 1.5 mi NE 8.1 mph - 0.00 in Snow Light Snow
5:28 PM 24.1 °F 16.0 °F 21.0 °F 88% 30.15 in 1.5 mi North 6.9 mph - 0.00 in Snow Light Snow
5:54 PM 24.1 °F 18.2 °F 21.9 °F 91% 30.19 in 1.0 mi NE 4.6 mph - 0.00 in Snow Light Snow
6:14 PM 24.1 °F 16.0 °F 21.9 °F 91% 30.15 in 1.2 mi North 6.9 mph - 0.00 in Snow Light Snow
6:27 PM 24.1 °F 17.0 °F 21.0 °F 88% 30.14 in 1.5 mi North 5.8 mph - 0.00 in Snow Light Snow
6:36 PM 24.1 °F 18.2 °F 21.0 °F 88% 30.13 in 2.0 mi North 4.6 mph - 0.00 in Snow Light Snow
6:54 PM 24.1 °F 17.0 °F 21.0 °F 88% 30.16 in 2.0 mi North 5.8 mph - 0.00 in Snow Light Snow
7:15 PM 24.1 °F 16.0 °F 19.9 °F 84% 30.11 in 4.0 mi NNE 6.9 mph - 0.00 in Snow Light Snow
7:27 PM 24.1 °F 16.0 °F 19.9 °F 84% 30.10 in 4.0 mi North 6.9 mph - 0.00 in Snow Light Snow
7:54 PM 24.1 °F 18.2 °F 21.0 °F 88% 30.13 in 7.0 mi North 4.6 mph - 0.00 in Snow Light Snow
8:02 PM 24.1 °F 17.0 °F 21.0 °F 88% 30.10 in 8.0 mi North 5.8 mph - 0.00 in Snow Light Snow
8:16 PM 24.1 °F 18.2 °F 19.9 °F 84% 30.09 in 7.0 mi North 4.6 mph - 0.00 in Snow Light Snow
8:54 PM 24.1 °F 19.7 °F 19.9 °F 84% 30.09 in 5.0 mi North 3.5 mph - 0.00 in Snow Light Snow
9:09 PM 23.0 °F 18.4 °F 19.9 °F 88% 30.05 in 2.0 mi NNE 3.5 mph - 0.00 in Snow Light Snow
9:27 PM 23.0 °F 18.4 °F 19.9 °F 88% 30.03 in 3.0 mi North 3.5 mph - 0.00 in Snow Light Snow
9:49 PM 23.0 °F 18.4 °F 19.4 °F 86% 30.02 in 2.5 mi North 3.5 mph - 0.00 in Snow Light Snow
9:54 PM 23.0 °F - 19.9 °F 88% 30.05 in 2.5 mi Calm Calm - 0.00 in Snow Light Snow
9:59 PM 23.0 °F - 21.0 °F 92% 30.01 in 1.8 mi Calm Calm - 0.00 in Snow Light Snow
10:25 PM 23.0 °F 18.4 °F 19.9 °F 88% 30.01 in 2.0 mi NNW 3.5 mph - 0.00 in Snow Light Snow
10:37 PM 23.0 °F 18.4 °F 19.9 °F 88% 29.99 in 1.5 mi NNE 3.5 mph - 0.00 in Snow Light Snow
10:42 PM 23.0 °F - 19.9 °F 88% 29.99 in 1.0 mi Calm Calm - 0.00 in Snow Light Snow
10:54 PM 23.0 °F - 19.9 °F 88% 30.01 in 1.8 mi Calm Calm - 0.00 in Snow Light Snow
10:59 PM 23.0 °F - 21.0 °F 92% 29.97 in 2.0 mi Calm Calm - 0.00 in Snow Light Snow
11:26 PM 23.0 °F 18.4 °F 19.9 °F 88% 29.96 in 3.0 mi North 3.5 mph - 0.00 in Snow Light Snow
11:54 PM 23.0 °F - 19.9 °F 88% 29.97 in 4.0 mi Calm Calm - 0.00 in Snow Light Snow